Mead, OK

6:07 AM CST on February 09, 2016 (GMT -0600)
Eaker

Weather History for KDUA - November, 2011

Change the Weather History Date:

Saturday, November 26, 2011

  Actual Average (KADM) Record (KADM)
Temperature  
Mean Temperature 54 °F -  
Max Temperature 64 °F 58 °F 84 °F (2000)
Min Temperature 44 °F 40 °F 23 °F (2010)
Degree Days  
Heating Degree Days 11    
Growing Degree Days 4 (Base 50)    
Moisture  
Dew Point 50 °F    
Average Humidity 85    
Maximum Humidity 100    
Minimum Humidity 53    
Precipitation  
Precipitation 0.12 in - - ()
Sea Level Pressure  
Sea Level Pressure 29.96 in    
Wind  
Wind Speed 15 mph (WNW)    
Max Wind Speed 23 mph    
Max Gust Speed 33 mph    
Visibility 10 miles    
Events Rain    
Averages and records for this station are not official NWS values.
T = Trace of Precipitation, MM = Missing Value Source: NWS Daily Summary

Daily Weather History Graph

Daily Weather History Graph

Search for Another Location

Airport or City:

Trip Planner

Search our weather history database for the weather conditions in past years. The results will help you decide how hot, cold, wet, or windy it might be!

Date:

Astronomy

Nov. 26, 2011 Rise Set
Actual Time 7:07 AM CST 5:17 PM CST
Civil Twilight 6:40 AM CST 5:44 PM CST
Nautical Twilight 6:10 AM CST 6:15 PM CST
Astronomical Twilight 5:40 AM CST 6:45 PM CST
Moon 8:37 AM CST (11/26) 6:52 PM CST (11/26)
Length of Visible Light 11h 03m
Length of Day
10h 09m
Waxing Crescent, 3% of the Moon is Illuminated
Nov 26
Waxing Crescent
Dec 2
First Quarter
Dec 10
Full
Dec 17
Last Quarter
Dec 24
New

Hourly Weather History & Observations

Time (CST) Temp. Windchill Dew Point Humidity Pressure Visibility Wind Dir Wind Speed Gust Speed Precip Events Conditions
12:35 AM 62.6 °F - 59.0 °F 88% 29.85 in 10.0 mi SSE 12.7 mph - N/A   Mostly Cloudy
12:55 AM 62.6 °F - 59.0 °F 88% 29.85 in 10.0 mi South 16.1 mph - N/A   Scattered Clouds
1:15 AM 62.6 °F - 57.2 °F 82% 29.84 in 10.0 mi South 15.0 mph 19.6 mph N/A   Mostly Cloudy
1:35 AM 62.6 °F - 57.2 °F 82% 29.84 in 10.0 mi South 16.1 mph - N/A   Scattered Clouds
1:55 AM 62.6 °F - 57.2 °F 82% 29.84 in 10.0 mi South 17.3 mph - N/A   Mostly Cloudy
2:15 AM 62.6 °F - 57.2 °F 82% 29.82 in 10.0 mi South 17.3 mph 24.2 mph N/A   Overcast
2:35 AM 62.6 °F - 57.2 °F 82% 29.83 in 10.0 mi South 18.4 mph 23.0 mph N/A   Overcast
2:55 AM 62.6 °F - 59.0 °F 88% 29.84 in 10.0 mi SSW 16.1 mph - N/A   Overcast
3:15 AM 62.6 °F - 59.0 °F 88% 29.83 in 10.0 mi South 12.7 mph 20.7 mph N/A   Drizzle
3:35 AM 60.8 °F - 59.0 °F 94% 29.83 in 10.0 mi South 13.8 mph - N/A Rain Light Rain
3:55 AM 60.8 °F - 59.0 °F 94% 29.82 in 10.0 mi South 15.0 mph - 0.01 in Rain Light Rain
4:15 AM 60.8 °F - 59.0 °F 94% 29.82 in 10.0 mi South 16.1 mph - N/A Rain Rain
4:35 AM 60.8 °F - 59.0 °F 94% 29.81 in 10.0 mi South 13.8 mph - 0.02 in Rain Light Rain
4:55 AM 60.8 °F - 59.0 °F 94% 29.81 in 10.0 mi South 16.1 mph - 0.02 in   Light Drizzle
5:15 AM 60.8 °F - 59.0 °F 94% 29.81 in 10.0 mi South 15.0 mph - 0.01 in Rain Rain
5:35 AM 60.8 °F - 59.0 °F 94% 29.79 in 10.0 mi SSE 12.7 mph 19.6 mph 0.02 in Rain Light Rain
5:55 AM 60.8 °F - 59.0 °F 94% 29.81 in 10.0 mi South 12.7 mph - 0.02 in Rain Light Rain
6:15 AM 60.8 °F - 60.8 °F 100% 29.81 in 10.0 mi South 12.7 mph - N/A   Overcast
6:35 AM 60.8 °F - 59.0 °F 94% 29.81 in 10.0 mi South 10.4 mph - N/A   Scattered Clouds
6:55 AM 60.8 °F - 59.0 °F 94% 29.82 in 10.0 mi South 10.4 mph - N/A   Mostly Cloudy
7:15 AM 60.8 °F - 59.0 °F 94% 29.83 in 10.0 mi South 9.2 mph - N/A   Overcast
7:35 AM 60.8 °F - 59.0 °F 94% 29.84 in 10.0 mi SSW 6.9 mph - N/A   Overcast
7:55 AM 60.8 °F - 60.8 °F 100% 29.84 in 10.0 mi SSW 11.5 mph - N/A   Overcast
8:15 AM 60.8 °F - 60.8 °F 100% 29.85 in 10.0 mi SSW 6.9 mph - N/A   Overcast
8:35 AM 60.8 °F - 60.8 °F 100% 29.86 in 10.0 mi SSW 8.1 mph - N/A   Overcast
9:15 AM 62.6 °F - 60.8 °F 94% 29.87 in 10.0 mi SSW 8.1 mph - N/A   Mostly Cloudy
9:35 AM 62.6 °F - 60.8 °F 94% 29.87 in 10.0 mi SSW 10.4 mph - N/A   Overcast
10:15 AM 64.4 °F - 60.8 °F 88% 29.88 in 10.0 mi SW 12.7 mph - N/A   Mostly Cloudy
10:35 AM 64.4 °F - 59.0 °F 83% 29.89 in 7.0 mi NNW 18.4 mph - 0.02 in Rain Heavy Rain
10:55 AM 55.4 °F - 53.6 °F 94% 29.90 in 10.0 mi NNW 17.3 mph 26.5 mph 0.06 in Rain Light Rain
11:15 AM 55.4 °F - 53.6 °F 94% 29.91 in 10.0 mi NNW 12.7 mph - N/A Rain Rain
11:35 AM 55.4 °F - 53.6 °F 94% 29.91 in 10.0 mi NNW 18.4 mph 23.0 mph N/A   Light Drizzle
11:55 AM 55.4 °F - 51.8 °F 88% 29.91 in 10.0 mi NNW 15.0 mph 25.3 mph N/A   Overcast
12:15 PM 55.4 °F - 51.8 °F 88% 29.91 in 10.0 mi NNW 13.8 mph 18.4 mph N/A   Overcast
12:35 PM 51.8 °F - 48.2 °F 88% 29.93 in 10.0 mi NNW 19.6 mph 31.1 mph N/A   Overcast
12:55 PM 51.8 °F - 44.6 °F 76% 29.95 in 10.0 mi NNW 19.6 mph 29.9 mph N/A   Overcast
1:15 PM 51.8 °F - 44.6 °F 76% 29.96 in 10.0 mi NNW 23.0 mph 33.4 mph N/A   Overcast
1:55 PM 50.0 °F - 42.8 °F 76% 29.98 in 10.0 mi NNW 20.7 mph 32.2 mph N/A   Overcast
2:15 PM 50.0 °F - 42.8 °F 76% 29.99 in 10.0 mi NNW 17.3 mph 32.2 mph N/A   Overcast
2:35 PM 50.0 °F - 42.8 °F 76% 29.99 in 10.0 mi NNW 16.1 mph 25.3 mph N/A   Overcast
2:55 PM 48.2 °F - 42.8 °F 82% 30.00 in 10.0 mi NNW 20.7 mph 29.9 mph N/A   Overcast
3:15 PM 46.4 °F 39.0 °F 42.8 °F 87% 30.01 in 10.0 mi NNW 19.6 mph 23.0 mph N/A   Light Drizzle
3:35 PM 48.2 °F - 41.0 °F 76% 30.02 in 10.0 mi NNW 18.4 mph 28.8 mph N/A   Overcast
3:55 PM 46.4 °F 40.1 °F 42.8 °F 87% 30.03 in 10.0 mi NNW 15.0 mph - N/A Rain Rain
4:15 PM 46.4 °F 40.1 °F 42.8 °F 87% 30.04 in 10.0 mi NNW 15.0 mph 24.2 mph N/A   Light Drizzle
4:35 PM 46.4 °F 39.2 °F 42.8 °F 87% 30.06 in 10.0 mi NNW 18.4 mph 25.3 mph N/A Rain Light Rain
4:55 PM 46.4 °F 39.0 °F 42.8 °F 87% 30.07 in 10.0 mi NNW 19.6 mph 25.3 mph N/A   Light Drizzle
5:15 PM 44.6 °F 37.8 °F 42.8 °F 93% 30.08 in 10.0 mi NNW 15.0 mph 24.2 mph N/A   Overcast
5:35 PM 44.6 °F 36.6 °F 42.8 °F 93% 30.09 in 10.0 mi NNW 19.6 mph 27.6 mph N/A Rain Rain
6:15 PM 44.6 °F 37.8 °F 42.8 °F 93% 30.12 in 10.0 mi NNW 15.0 mph 20.7 mph N/A   Drizzle
6:35 PM 44.6 °F 38.4 °F 42.8 °F 93% 30.12 in 10.0 mi NNW 12.7 mph - 0.01 in   Light Drizzle
6:55 PM 46.4 °F 40.1 °F 42.8 °F 87% 30.12 in 10.0 mi NNW 15.0 mph 24.2 mph 0.01 in   Overcast
7:15 PM 46.4 °F 40.7 °F 42.8 °F 87% 30.13 in 10.0 mi NW 12.7 mph - N/A   Overcast
7:35 PM 46.4 °F 41.5 °F 42.8 °F 87% 30.13 in 10.0 mi NW 10.4 mph - N/A   Overcast
8:15 PM 46.4 °F 40.4 °F 41.0 °F 81% 30.14 in 10.0 mi NNW 13.8 mph 20.7 mph N/A   Scattered Clouds
8:35 PM 46.4 °F 41.1 °F 41.0 °F 81% 30.15 in 10.0 mi NNW 11.5 mph - N/A   Mostly Cloudy
8:55 PM 48.2 °F - 37.4 °F 66% 30.15 in 10.0 mi NNW 18.4 mph 25.3 mph N/A   Mostly Cloudy
9:15 PM 48.2 °F - 37.4 °F 66% 30.16 in 10.0 mi NNW 15.0 mph 20.7 mph N/A   Mostly Cloudy
9:35 PM 48.2 °F - 37.4 °F 66% 30.16 in 10.0 mi NNW 15.0 mph 21.9 mph N/A   Mostly Cloudy
10:15 PM 48.2 °F - 35.6 °F 62% 30.17 in 10.0 mi NNW 16.1 mph 26.5 mph N/A   Clear
10:35 PM 48.2 °F - 33.8 °F 58% 30.17 in 10.0 mi NNW 20.7 mph 27.6 mph N/A   Clear
10:55 PM 46.4 °F 39.0 °F 32.0 °F 57% 30.18 in 10.0 mi NNW 19.6 mph 26.5 mph N/A   Clear
11:15 PM 46.4 °F 39.0 °F 32.0 °F 57% 30.19 in 10.0 mi NNW 19.6 mph 27.6 mph N/A   Clear
11:35 PM 46.4 °F 40.4 °F 32.0 °F 57% 30.19 in 10.0 mi NNW 13.8 mph 19.6 mph N/A   Clear
11:55 PM 46.4 °F 39.5 °F 30.2 °F 53% 30.19 in 10.0 mi NNW 17.3 mph 29.9 mph N/A   Clear